Theta_e
348 350 351 353 348 346 346 345 345 347 346 344 342 344 340 340 342 346 345 346 345 346 351 354 352 352 353 353 352 352 349 348 348 348 349 349 349 349 349 349 348 347 348
349 350 352 353 353 353 351 346 345 344 345 345 345 346 340 343 343 342 343 343 348 351 353 352 354 353 353 350 350 347 345 345 347 347 349 351 348 347 349 348 348 347 348
351 350 351 352 352 353 352 346 345 344 344 346 348 347 344 340 344 344 343 344 349 353 353 353 353 352 352 349 347 347 351 348 347 350 348 348 348 345 348 349 349 349 348
350 350 351 351 350 352 352 348 348 348 349 346 346 346 338 339 344 345 347 354 353 354 352 352 351 349 348 349 347 349 350 349 350 347 346 348 349 349 345 346 347 345 345
350 350 352 352 351 351 349 349 350 352 349 343 343 340 340 342 342 349 351 352 353 353 353 352 353 349 350 351 350 349 349 349 349 347 347 345 341 349 349 348 348 347 344
350 352 353 353 354 353 351 351 350 349 349 347 347 345 346 342 346 350 352 352 350 351 352 352 351 352 352 349 343 345 345 346 347 342 343 333 332 344 339 340 348 346 346
349 352 351 353 353 352 351 350 350 347 348 345 348 350 348 350 351 352 353 353 352 350 352 352 352 350 350 343 342 344 346 346 343 343 334 338 340 345 348 347 346 344 343
348 351 351 353 352 351 352 352 349 350 347 347 347 350 350 348 348 349 352 352 351 351 347 349 352 350 340 343 344 345 347 349 342 338 334 340 345 346 343 335 334 341 344
349 351 352 352 354 353 353 352 350 352 349 344 345 345 346 342 341 347 348 349 346 348 348 346 345 346 342 342 341 343 347 347 348 339 336 344 347 342 339 331 334 329 329
352 352 352 353 352 351 352 350 349 349 352 347 346 349 349 350 352 349 346 343 344 347 348 347 344 344 340 340 337 341 346 348 347 340 338 343 349 345 342 332 331 331 330
354 352 352 353 352 352 350 352 350 353 353 352 350 349 346 347 351 351 344 342 346 344 344 345 342 342 338 339 336 340 344 347 347 344 345 339 344 347 345 339 340 340 342
352 353 350 351 353 352 351 352 350 351 352 352 351 351 346 346 349 345 343 345 348 345 343 344 343 338 337 334 333 337 342 341 346 348 347 346 337 341 346 346 346 342 343
352 352 351 350 351 351 351 353 353 354 351 350 349 350 348 345 345 347 346 347 349 351 342 341 348 339 335 335 338 339 339 340 340 344 347 348 336 333 340 335 333 335 333
353 354 352 350 348 349 349 350 348 353 353 351 349 348 347 346 344 346 347 347 348 349 343 342 343 338 334 334 339 345 345 344 345 345 347 345 333 333 337 335 332 329 330
353 352 351 350 349 349 347 351 350 350 351 350 349 347 345 342 342 345 345 349 349 348 344 342 344 341 338 336 341 347 344 344 345 344 346 341 337 337 339 339 335 331 329
351 350 349 349 348 348 348 347 347 350 350 349 350 348 348 346 343 350 349 347 350 348 345 341 341 339 342 338 341 343 343 343 346 346 342 336 339 341 342 342 337 332 331
348 347 347 348 347 347 344 345 344 343 345 346 345 343 343 345 346 350 351 348 347 348 346 342 340 341 345 347 345 342 342 343 344 346 345 344 341 344 345 344 343 341 335
349 348 344 346 346 348 347 344 343 342 344 344 344 346 346 348 349 349 349 343 344 346 345 345 341 343 346 347 347 345 342 344 341 344 347 345 344 345 346 346 346 343 342
350 349 347 346 344 346 347 347 347 343 342 344 346 348 349 348 347 349 349 347 346 348 346 347 346 345 344 346 346 345 345 344 342 341 346 348 346 345 346 348 347 346 343
350 350 350 348 346 345 345 348 349 349 346 346 348 348 348 349 349 346 347 349 349 350 347 347 348 346 347 345 346 345 345 346 344 342 341 343 344 345 347 348 349 348 347
351 350 350 349 349 348 347 346 349 351 351 349 350 351 352 352 351 351 347 346 348 349 347 344 348 349 347 347 345 344 346 344 344 344 341 340 342 343 346 347 347 347 348
350 352 351 350 349 349 348 348 349 350 351 350 351 352 351 351 351 352 351 349 349 348 348 344 346 349 347 347 344 343 340 342 342 342 342 342 342 340 341 344 344 346 346
348 350 353 352 351 351 350 350 350 350 351 351 351 352 351 352 351 350 351 350 350 348 348 348 346 348 347 347 344 344 338 341 338 343 342 341 341 342 341 340 342 343 343
353 352 351 353 355 355 352 350 349 351 351 351 351 350 350 352 352 350 350 350 351 350 348 348 347 347 348 346 345 345 345 340 339 339 341 342 341 341 342 342 342 342 343
355 355 355 355 353 354 355 352 351 351 351 351 351 350 350 349 349 350 350 350 351 351 349 347 347 346 346 347 345 344 344 345 341 339 339 339 341 343 341 344 345 343 344
350 344 350 353 355 357 357 356 354 353 352 352 351 351 350 350 350 349 350 350 350 350 350 348 347 347 349 347 346 345 343 343 342 340 337 338 339 340 341 341 345 344 344
Wind_Speed
17 17 21 22 24 24 27 29 30 31 33 33 32 30 30 29 28 23 21 20 20 19 18 17 16 16 18 19 18 17 17 18 18 16 16 16 15 14 14 15 15 16 15
23 20 21 23 23 23 24 28 29 28 31 31 29 28 28 27 23 22 20 19 20 19 18 18 16 16 17 18 17 17 18 19 19 17 16 15 13 13 13 12 13 13 13
23 19 22 25 24 24 24 26 28 29 30 30 29 28 26 23 20 20 20 20 20 18 17 17 16 17 17 15 17 18 16 16 17 16 16 15 14 14 13 12 12 13 12
25 23 22 25 24 25 24 25 27 28 28 30 30 29 27 23 21 19 21 18 17 17 16 17 16 16 18 16 18 19 16 13 14 16 17 16 14 13 12 12 11 11 11
26 25 23 25 24 23 23 24 25 26 29 30 30 30 27 24 21 17 17 16 16 15 15 15 15 15 18 18 18 18 17 15 9 12 14 13 14 13 13 12 11 10 11
28 25 24 24 24 23 24 25 27 26 27 27 27 27 24 22 19 16 15 13 13 12 14 15 15 15 17 18 18 14 11 7 6 9 11 12 14 14 11 12 11 10 9
29 26 23 24 25 25 25 27 27 27 28 27 24 23 22 19 17 15 13 12 12 10 12 14 13 14 13 15 15 12 8 4 9 11 12 14 13 13 12 11 10 9 9
30 26 24 24 25 26 25 27 27 25 26 26 24 21 19 18 16 13 11 11 11 10 10 12 12 13 13 12 12 11 8 6 8 12 14 13 13 14 13 11 11 10 10
28 27 24 25 24 24 24 25 25 23 24 26 24 22 20 16 14 12 12 12 10 10 9 9 11 11 12 10 9 9 6 5 10 12 13 14 13 11 11 11 11 10 10
26 26 26 25 25 25 24 24 25 23 22 23 22 19 17 14 13 13 12 10 10 8 8 8 9 10 12 12 9 8 4 2 11 13 12 12 12 11 11 11 11 10 9
21 24 25 26 25 25 25 24 24 22 21 21 20 19 18 16 14 12 11 11 9 8 8 8 7 9 11 13 11 9 6 4 9 10 11 10 12 12 12 12 12 11 10
22 21 26 26 25 25 24 23 24 22 22 22 21 20 19 18 17 14 13 12 10 9 9 8 6 8 11 13 12 10 9 7 9 11 16 14 14 14 14 13 13 12 12
23 21 29 28 27 25 24 24 24 23 23 23 22 21 21 20 18 16 15 14 13 12 10 9 9 8 10 12 11 9 7 6 8 11 11 16 16 15 15 15 14 14 13
23 22 30 29 28 27 25 24 25 24 24 23 24 23 22 21 20 18 17 16 16 14 12 12 11 9 10 11 10 9 7 8 12 14 13 15 15 15 15 15 15 15 15
27 29 32 31 30 28 26 26 25 25 25 25 24 23 23 23 21 18 16 18 17 16 14 14 14 12 12 11 11 9 6 6 9 10 15 18 15 16 14 15 15 16 17
30 33 33 33 32 30 27 26 27 26 24 24 24 24 24 23 21 19 18 18 20 18 16 17 15 13 13 12 12 11 9 8 8 11 16 18 17 16 16 15 16 16 16
35 34 34 34 33 33 30 27 27 26 25 25 25 25 25 24 23 22 22 20 21 20 18 19 18 16 15 14 15 13 11 10 12 16 19 19 19 17 15 17 17 17 16
26 32 33 33 34 33 31 28 28 27 26 26 26 25 26 26 25 23 23 23 23 21 22 22 20 19 19 19 18 15 13 13 14 14 17 23 22 19 17 19 20 20 19
34 33 34 33 33 34 32 29 29 28 28 27 27 27 27 28 28 28 27 26 26 25 24 24 23 21 22 21 20 19 17 15 16 17 17 19 22 21 21 20 21 19 20
34 33 33 34 34 33 33 31 29 30 31 29 29 29 29 30 31 32 31 31 28 27 29 28 26 23 23 23 23 23 20 22 22 20 20 22 22 21 24 24 24 24 21
31 31 32 34 36 34 33 35 33 33 35 33 32 31 30 32 35 33 35 34 31 29 30 30 26 26 26 24 18 21 23 25 26 25 24 23 24 23 22 23 27 28 26
25 31 31 36 39 40 35 34 28 30 33 37 35 34 31 31 30 34 36 36 35 35 32 32 30 27 26 25 13 7 3 12 21 27 26 24 28 27 28 26 26 28 29
20 28 30 34 35 39 36 27 27 28 25 26 35 37 38 32 30 31 34 37 37 36 37 34 33 33 25 28 25 11 2 4 3 12 21 27 28 28 28 29 31 31 29
16 21 28 30 31 32 28 27 34 31 26 31 30 32 36 40 35 33 33 36 38 39 38 38 37 37 32 26 20 30 26 5 4 3 5 17 27 29 29 32 32 30 29
14 12 15 24 29 33 30 24 24 28 27 30 29 28 28 32 34 37 37 37 38 40 40 40 37 37 37 30 31 20 30 28 15 4 4 7 11 12 16 20 30 33 30
9 7 8 10 12 16 21 23 24 26 28 28 29 29 30 33 33 36 37 38 40 41 41 42 42 40 40 38 32 31 26 15 17 11 5 10 13 28 27 22 18 23 28
Wind_Direction
157 152 140 134 135 134 131 134 134 135 136 137 137 134 133 130 128 125 122 122 120 119 116 113 113 113 111 111 111 115 115 117 117 116 117 111 109 110 109 112 117 119 116
147 148 138 133 133 134 135 137 138 141 139 138 139 135 134 131 126 126 124 123 123 119 115 116 116 116 115 116 118 116 118 116 119 121 121 119 113 117 116 116 119 120 118
143 144 140 134 135 136 136 140 143 144 142 140 139 137 136 132 123 122 121 122 121 121 118 119 121 120 117 119 120 121 122 118 119 129 129 124 114 120 123 122 118 127 126
144 142 144 139 137 140 136 139 143 145 142 140 141 142 146 139 127 125 122 123 120 123 124 122 123 122 122 123 121 126 122 115 113 122 132 124 124 125 127 125 129 133 131
143 145 143 144 143 141 141 145 144 145 144 145 145 145 146 142 135 130 126 126 124 124 124 126 126 130 126 129 129 130 125 110 105 132 136 140 133 132 133 130 131 129 127
146 145 144 144 144 146 148 146 142 146 146 144 141 145 143 142 140 137 132 130 126 128 128 128 131 132 132 134 132 136 138 144 152 161 155 145 141 144 140 140 138 139 139
149 148 149 149 148 149 149 147 146 149 150 151 146 147 148 145 141 141 138 132 132 131 130 134 138 138 138 141 138 136 137 149 170 175 167 152 147 143 139 148 147 149 153
154 153 152 153 153 152 152 152 153 152 157 159 157 154 153 152 149 149 145 139 139 137 136 139 145 147 146 151 146 143 146 155 164 169 172 167 160 163 166 165 164 165 160
159 155 156 157 156 154 155 158 158 156 162 166 166 165 164 163 161 156 157 158 149 147 151 157 153 160 158 165 163 152 156 195 191 186 182 181 180 180 175 172 166 169 174
165 163 162 159 160 160 161 163 163 164 165 169 172 170 170 169 167 167 166 164 166 166 175 178 170 169 170 171 177 159 152 175 187 193 201 202 195 196 192 182 176 173 172
168 172 169 165 167 167 169 169 172 171 170 172 175 180 183 182 178 178 175 178 182 183 191 189 181 181 176 175 181 170 169 149 188 208 221 218 211 208 206 198 190 187 186
173 176 177 174 173 174 175 173 177 177 182 181 183 183 190 191 191 195 195 196 202 202 202 198 198 195 184 177 183 184 195 195 209 233 243 226 226 214 214 211 208 203 201
175 177 183 181 181 181 183 183 185 184 191 189 190 190 196 199 201 207 208 206 208 218 215 206 212 198 192 184 187 197 207 242 257 256 245 219 224 222 218 219 216 214 212
177 182 188 188 185 187 191 191 195 194 198 199 199 201 204 208 213 215 219 221 218 217 221 216 216 205 202 208 204 201 212 271 283 256 228 215 220 223 220 223 221 221 221
181 189 192 192 191 192 196 198 201 203 205 207 208 210 213 217 218 219 226 233 232 228 229 225 223 210 216 221 220 226 260 281 270 230 209 211 212 219 221 223 226 225 226
190 196 197 199 198 198 203 205 208 210 213 215 217 218 220 224 227 230 232 239 239 235 234 232 229 224 227 227 231 242 257 271 236 219 217 221 220 224 226 234 233 234 232
195 200 203 204 205 204 206 211 214 217 220 222 225 228 229 229 232 236 236 236 241 237 240 239 232 228 228 230 239 244 246 249 247 252 243 234 227 231 238 239 244 241 239
194 199 204 206 210 211 211 212 215 219 223 226 228 231 234 234 234 236 234 235 238 232 238 234 231 230 238 244 249 252 241 243 247 254 247 236 227 236 240 238 240 246 245
202 201 204 204 212 213 216 218 219 223 226 232 235 236 238 240 239 237 241 242 242 236 236 234 233 233 239 245 249 258 243 246 258 246 243 240 242 243 246 250 245 248 252
205 211 208 207 209 215 217 221 227 232 233 235 238 242 245 246 245 243 243 244 243 242 241 238 239 240 245 248 248 255 258 255 257 253 246 245 248 251 251 256 259 252 254
208 213 213 212 217 217 217 214 224 234 234 234 237 243 249 253 252 248 244 244 243 243 242 242 242 247 243 245 256 255 256 259 259 257 252 248 250 253 255 257 262 260 261
205 214 216 221 221 221 217 225 225 227 230 233 234 238 247 255 256 252 249 246 241 239 240 240 241 244 243 242 231 245 303 269 254 257 254 256 257 254 255 257 266 263 263
206 212 218 226 225 229 226 229 237 242 240 243 238 239 240 242 248 250 249 246 247 242 240 237 238 242 241 245 238 209 185 232 314 258 256 258 259 260 261 261 260 266 268
228 228 229 233 238 242 247 229 238 243 243 247 249 247 245 242 244 246 247 246 247 248 240 242 239 240 234 233 231 228 238 236 195 315 271 258 254 258 262 259 258 258 263
173 181 202 229 241 247 246 250 250 259 264 266 265 270 262 252 248 249 247 247 246 246 244 241 239 236 235 231 235 232 238 243 243 192 253 274 269 257 281 286 255 254 259
149 145 165 188 223 246 245 251 254 259 265 266 267 264 269 266 262 252 250 251 249 245 244 242 242 241 240 236 233 235 228 224 229 222 227 250 259 275 287 282 267 249 253